Location: Nag� el Ma?a??a
(24.0667°N, 32.8833°E)
Time: 17:03:24
(UTC+00:00)

Cosmos 2369 Rocket - Pass Details

Date: 25 September 2021
Orbit: 830 x 851 km, 71.0° (Epoch: 16 October)

Event Time Altitude Azimuth Distance (km) Brightness Sun altitude
Rises 02:57:23 0° 347° (NNW) 3,371 5.2 -10.1°
Reaches altitude 10° 02:59:52 10° 351° (N) 2,434 4.5 -9.6°
Maximum altitude 03:05:22 59° 71° (ENE) 952 2.9 -8.3°
Drops below altitude 10° 03:10:50 10° 150° (SSE) 2,429 5.0 -7.1°
Sets 03:13:18 0° 154° (SSE) 3,362 5.7 -6.5°
